Location: Longueuil
(45.5369°N, 73.5107°W)
Time: 12:56:44
(UTC-04:00)

ISS - Visible Passes

Search period start: 26 July 2021 00:00
Search period end: 05 August 2021 00:00
Orbit: 419 x 421 km, 51.6° (Epoch: 26 July)

Date Brightness Start Highest point End Pass type
(mag) Time Alt. Az. Time Alt. Az. Time Alt. Az.
26 Jul -2.1 20:58:03 10° NW 21:01:07 30° N 21:04:09 10° ENE visible
26 Jul -3.8 22:34:51 10° WNW 22:38:15 85° NNE 22:38:57 53° ESE visible
27 Jul -3.4 21:47:33 10° WNW 21:50:55 59° NNE 21:53:12 18° E visible
27 Jul -1.6 23:24:42 10° W 23:26:09 19° WSW 23:26:09 19° WSW visible
28 Jul -2.8 21:00:14 10° NW 21:03:31 44° NNE 21:06:46 10° E visible
28 Jul -3.0 22:37:09 10° WNW 22:40:19 39° SW 22:40:27 39° SSW visible
29 Jul -3.6 21:49:43 10° WNW 21:53:04 62° SSW 21:54:46 26° SE visible
30 Jul -3.7 21:02:22 10° WNW 21:05:45 86° NNE 21:09:08 10° ESE visible
30 Jul -1.5 22:40:04 10° W 22:42:07 16° SW 22:42:07 16° SW visible
31 Jul -2.1 21:52:12 10° W 21:55:01 24° SW 21:56:32 18° S visible
01 Aug -2.8 21:04:37 10° WNW 21:07:48 38° SW 21:10:58 10° SSE visible
03 Aug -1.3 21:07:34 10° W 21:09:37 15° SW 21:11:41 10° S visible
